Weather History for EGDR - October, 2010

Change the Weather History Date:

Tuesday, October 5, 2010

  Actual Average Record
Temperature  
Mean Temperature 59 °F -  
Max Temperature 61 °F 55 °F 63 °F (2013)
Min Temperature 55 °F 47 °F 41 °F (1999)
Degree Days  
Heating Degree Days 6    
Growing Degree Days 9 (Base 50)    
Moisture  
Dew Point 55 °F    
Average Humidity 88    
Maximum Humidity 100    
Minimum Humidity 72    
Precipitation  
Precipitation 0.31 in - - ()
Sea Level Pressure  
Sea Level Pressure 29.48 in    
Wind  
Wind Speed 11 mph ()    
Max Wind Speed 17 mph    
Max Gust Speed 31 mph    
Visibility 6.5 miles    
Events Rain    
Averages and records for this station are not official NWS values.
T = Trace of Precipitation, MM = Missing Value Source: Averaged Metar Reports

Daily Weather History Graph

Daily Weather History Graph

Search for Another Location

Airport or City:

Trip Planner

Search our weather history database for the weather conditions in past years. The results will help you decide how hot, cold, wet, or windy it might be!

Date:

Astronomy

Oct. 05, 2010 Rise Set
Actual Time 7:26 AM BST 6:51 PM BST
Civil Twilight 6:54 AM BST 7:23 PM BST
Nautical Twilight 6:17 AM BST 8:00 PM BST
Astronomical Twilight 5:38 AM BST 8:38 PM BST
Moon 4:17 AM BST (10/5) 5:24 PM BST (10/5)
Length of Visible Light 12h 28m
Length of Day
11h 24m
Waning Crescent, 8% of the Moon is Illuminated
Oct 5
Waning Crescent
Oct 7
New
Oct 14
First Quarter
Oct 23
Full
Oct 30
Last Quarter

Hourly Weather History & Observations

Time (BST) Temp. Dew Point Humidity Pressure Visibility Wind Dir Wind Speed Gust Speed Precip Events Conditions
12:50 AM 58 °F 56 °F 90% 29.46 in 12 mi SW 11.5 mph - -   Partly Cloudy
12:50 AM 57.2 °F 55.4 °F 94% 29.44 in 6.2 mi SW 11.5 mph - N/A   Partly Cloudy
1:50 AM 57.2 °F 57.2 °F 100% 29.44 in 6.2 mi SW 16.1 mph - N/A   Mostly Cloudy
2:50 AM 59.0 °F 57.2 °F 94% 29.44 in 6.2 mi SW 15.0 mph - N/A   Mostly Cloudy
3:50 AM 58 °F 57 °F 94% 29.45 in 9 mi SW 13.8 mph - -   Haze
3:50 AM 59.0 °F 57.2 °F 94% 29.44 in 6.2 mi SW 13.8 mph - N/A   Mostly Cloudy
4:50 AM 57.2 °F 55.4 °F 94% 29.44 in 6.2 mi WSW 13.8 mph 25.3 mph N/A Rain Light Rain
5:50 AM 57.2 °F 53.6 °F 88% 29.44 in 6.2 mi West 10.4 mph - N/A   Overcast
6:50 AM 58 °F 54 °F 83% 29.48 in 7 mi WSW 13.8 mph - -   Haze
6:50 AM 57.2 °F 53.6 °F 88% 29.47 in 6.2 mi WSW 13.8 mph - N/A   Haze
7:50 AM 57.2 °F 55.4 °F 94% 29.47 in 5.0 mi WSW 10.4 mph - N/A   Haze
8:50 AM 59.0 °F 55.4 °F 88% 29.47 in 6.2 mi SW 13.8 mph - N/A   Overcast
9:50 AM 58 °F 53 °F 79% 29.50 in 6 mi WSW 10.4 mph - -   Overcast
9:50 AM 57.2 °F 53.6 °F 88% 29.50 in 6.2 mi WSW 10.4 mph - N/A   Overcast
10:50 AM 59.0 °F 53.6 °F 82% 29.50 in 6.2 mi WSW 15.0 mph - N/A   Mostly Cloudy
11:50 AM 59.0 °F 55.4 °F 88% 29.50 in 6.2 mi SW 12.7 mph - N/A   Mostly Cloudy
12:50 PM 59 °F 55 °F 84% 29.53 in 7 mi SW 11.5 mph - -   Haze
12:50 PM 59.0 °F 55.4 °F 88% 29.50 in 6.2 mi SW 11.5 mph - N/A   Mostly Cloudy
1:50 PM 60.8 °F 51.8 °F 72% 29.53 in 6.2 mi SW 12.7 mph - N/A   Scattered Clouds
2:50 PM 60.8 °F 53.6 °F 77% 29.53 in 6.2 mi SW 12.7 mph - N/A   Partly Cloudy
3:50 PM 60 °F 54 °F 76%  in 11 mi SW 11.5 mph - -   Scattered Clouds
3:50 PM 60.8 °F 55.4 °F 82% 29.53 in 6.2 mi SW 11.5 mph - N/A   Partly Cloudy
4:50 PM 60.8 °F 53.6 °F 77% 29.50 in 6.2 mi SSW 10.4 mph - N/A   Partly Cloudy
5:50 PM 59.0 °F 55.4 °F 88% 29.50 in 6.2 mi SSW 8.1 mph - N/A   Mostly Cloudy
6:50 PM 58 °F 55 °F 86% 29.52 in 9 mi South 6.9 mph - -   Haze
6:50 PM 57.2 °F 55.4 °F 94% 29.50 in 6.2 mi South 6.9 mph - N/A   Mostly Cloudy
7:50 PM 57.2 °F 55.4 °F 94% 29.50 in 6.2 mi South 8.1 mph - N/A   Scattered Clouds
8:50 PM 59.0 °F 57.2 °F 94% 29.50 in 6.2 mi South 9.2 mph - N/A   Mostly Cloudy
9:50 PM 59 °F 57 °F 92% 29.49 in 5 mi South 11.5 mph - - Rain Light Rain
9:50 PM 59.0 °F 57.2 °F 94% 29.47 in 5.0 mi South 11.5 mph - N/A Rain Light Rain
10:50 PM 59.0 °F 57.2 °F 94% 29.47 in 3.7 mi SSW 17.3 mph 31.1 mph N/A Rain Rain
11:50 PM 55.4 °F 53.6 °F 94% 29.47 in 3.1 mi West 11.5 mph - N/A Rain Rain